Time,TemperatureF,DewpointF,PressureIn,WindDirection,WindDirectionDegrees,WindSpeedMPH,WindSpeedGustMPH,Humidity,HourlyPrecipIn,Conditions,Clouds,dailyrainin,SolarRadiationWatts/m^2,SoftwareType,DateUTC
2013-01-03 00:01:00,36.3,35.5,30.21,NNW,348,0.0,2.0,97,0.00,,,0.00,0,Wunderground v.1.15,2013-01-03 05:01:00,
2013-01-03 00:02:00,36.4,35.6,30.21,NNW,348,0.0,2.0,97,0.00,,,0.00,0,Wunderground v.1.15,2013-01-03 05:02:00,
2013-01-03 00:04:00,36.3,35.5,30.21,NNW,348,0.0,2.0,97,0.00,,,0.00,0,Wunderground v.1.15,2013-01-03 05:04:00,
2013-01-03 00:05:00,36.3,35.5,30.21,NNW,348,0.0,2.0,97,0.00,,,0.00,0,Wunderground v.1.15,2013-01-03 05:05:00,
2013-01-03 00:11:00,36.3,35.5,30.21,NNW,348,0.0,1.0,97,0.00,,,0.00,0,Wunderground v.1.15,2013-01-03 05:11:00,
2013-01-03 00:16:00,36.3,35.5,30.20,North,360,0.0,1.0,97,0.00,,,0.00,0,Wunderground v.1.15,2013-01-03 05:16:00,
2013-01-03 00:22:00,36.3,35.5,30.21,North,360,2.0,2.0,97,0.00,,,0.00,0,Wunderground v.1.15,2013-01-03 05:22:00,
2013-01-03 00:28:00,36.2,35.4,30.21,NNW,331,2.0,4.0,97,0.00,,,0.00,0,Wunderground v.1.15,2013-01-03 05:28:00,
2013-01-03 00:34:00,36.1,35.3,30.22,NNW,340,0.0,4.0,97,0.00,,,0.00,0,Wunderground v.1.15,2013-01-03 05:34:00,
2013-01-03 00:40:00,36.1,35.3,30.20,ENE,59,0.0,2.0,97,0.00,,,0.00,0,Wunderground v.1.15,2013-01-03 05:40:00,
2013-01-03 00:46:00,36.1,35.3,30.20,ENE,59,0.0,2.0,97,0.00,,,0.00,0,Wunderground v.1.15,2013-01-03 05:46:00,
2013-01-03 00:51:00,36.1,35.3,30.19,ENE,59,0.0,0.0,97,0.00,,,0.00,0,Wunderground v.1.15,2013-01-03 05:51:00,
2013-01-03 00:57:00,36.1,35.3,30.19,ENE,59,0.0,0.0,97,0.00,,,0.00,0,Wunderground v.1.15,2013-01-03 05:57:00,
2013-01-03 01:03:00,36.0,35.2,30.20,ENE,59,0.0,0.0,97,0.00,,,0.00,0,Wunderground v.1.15,2013-01-03 06:03:00,
2013-01-03 01:08:00,36.0,35.2,30.20,ENE,59,0.0,0.0,97,0.00,,,0.00,0,Wunderground v.1.15,2013-01-03 06:08:00,
2013-01-03 01:14:00,36.0,35.2,30.21,NNW,348,1.0,1.0,97,0.00,,,0.00,0,Wunderground v.1.15,2013-01-03 06:14:00,
2013-01-03 01:20:00,36.0,35.2,30.21,North,350,2.0,2.0,97,0.00,,,0.00,0,Wunderground v.1.15,2013-01-03 06:20:00,
2013-01-03 01:26:00,36.0,35.2,30.20,NNW,333,0.0,3.0,97,0.00,,,0.00,0,Wunderground v.1.15,2013-01-03 06:26:00,
2013-01-03 01:32:00,35.9,35.1,30.19,NNW,333,0.0,1.0,97,0.00,,,0.00,0,Wunderground v.1.15,2013-01-03 06:32:00,
2013-01-03 01:38:00,35.9,35.1,30.19,ENE,69,0.0,1.0,97,0.00,,,0.00,0,Wunderground v.1.15,2013-01-03 06:38:00,
2013-01-03 01:44:00,35.9,35.1,30.18,ENE,69,0.0,2.0,97,0.00,,,0.00,0,Wunderground v.1.15,2013-01-03 06:44:00,
2013-01-03 01:50:00,35.9,35.1,30.19,ENE,69,0.0,0.0,97,0.00,,,0.00,0,Wunderground v.1.15,2013-01-03 06:50:00,
2013-01-03 01:56:00,35.9,35.1,30.20,ENE,69,0.0,0.0,97,0.00,,,0.00,0,Wunderground v.1.15,2013-01-03 06:56:00,
2013-01-03 02:01:00,35.9,35.1,30.19,ENE,69,0.0,0.0,97,0.00,,,0.00,0,Wunderground v.1.15,2013-01-03 07:01:00,
2013-01-03 02:06:00,35.9,35.1,30.18,ENE,69,0.0,1.0,97,0.00,,,0.00,0,Wunderground v.1.15,2013-01-03 07:06:00,
2013-01-03 02:11:00,35.9,35.1,30.19,ENE,69,0.0,0.0,97,0.00,,,0.00,0,Wunderground v.1.15,2013-01-03 07:11:00,
2013-01-03 02:16:00,35.9,35.1,30.19,ENE,69,0.0,1.0,97,0.00,,,0.00,0,Wunderground v.1.15,2013-01-03 07:16:00,
2013-01-03 02:21:00,35.9,35.1,30.19,NNE,22,0.0,1.0,97,0.00,,,0.00,0,Wunderground v.1.15,2013-01-03 07:21:00,
2013-01-03 02:26:00,35.9,35.1,30.19,North,355,0.0,4.0,97,0.00,,,0.00,0,Wunderground v.1.15,2013-01-03 07:26:00,
2013-01-03 02:31:00,35.9,35.1,30.19,NNW,345,0.0,1.0,97,0.00,,,0.00,0,Wunderground v.1.15,2013-01-03 07:31:00,
2013-01-03 02:36:00,35.8,35.0,30.20,NNW,347,2.0,3.0,97,0.00,,,0.00,0,Wunderground v.1.15,2013-01-03 07:36:00,
2013-01-03 02:41:00,35.8,35.0,30.20,NNW,347,0.0,1.0,97,0.00,,,0.00,0,Wunderground v.1.15,2013-01-03 07:41:00,
2013-01-03 02:46:00,35.8,35.0,30.20,NNW,347,0.0,1.0,97,0.00,,,0.00,0,Wunderground v.1.15,2013-01-03 07:46:00,
2013-01-03 02:52:00,35.8,35.0,30.20,NNW,347,1.0,1.0,97,0.00,,,0.00,0,Wunderground v.1.15,2013-01-03 07:52:00,
2013-01-03 02:57:00,35.8,35.0,30.20,NNW,347,0.0,3.0,97,0.00,,,0.00,0,Wunderground v.1.15,2013-01-03 07:57:00,
2013-01-03 03:02:00,35.8,35.0,30.20,NNW,348,0.0,2.0,97,0.00,,,0.00,0,Wunderground v.1.15,2013-01-03 08:02:00,
2013-01-03 03:07:00,35.8,35.0,30.20,NE,44,0.0,2.0,97,0.00,,,0.00,0,Wunderground v.1.15,2013-01-03 08:07:00,
2013-01-03 03:12:00,35.7,34.9,30.20,NE,44,0.0,0.0,97,0.00,,,0.00,0,Wunderground v.1.15,2013-01-03 08:12:00,
2013-01-03 03:17:00,35.7,34.9,30.19,East,84,0.0,2.0,97,0.00,,,0.00,0,Wunderground v.1.15,2013-01-03 08:17:00,
2013-01-03 03:22:00,35.8,35.0,30.20,East,84,0.0,0.0,97,0.00,,,0.00,0,Wunderground v.1.15,2013-01-03 08:22:00,
2013-01-03 03:27:00,35.8,35.0,30.20,NNE,25,0.0,3.0,97,0.00,,,0.00,0,Wunderground v.1.15,2013-01-03 08:27:00,
2013-01-03 03:32:00,35.8,35.0,30.21,NNE,21,0.0,3.0,97,0.00,,,0.00,0,Wunderground v.1.15,2013-01-03 08:32:00,
2013-01-03 03:37:00,35.7,34.9,30.21,NNE,19,0.0,3.0,97,0.00,,,0.00,0,Wunderground v.1.15,2013-01-03 08:37:00,
2013-01-03 03:42:00,35.7,34.9,30.20,NNE,19,0.0,0.0,97,0.00,,,0.00,0,Wunderground v.1.15,2013-01-03 08:42:00,
2013-01-03 03:47:00,35.7,34.9,30.20,NNE,19,0.0,0.0,97,0.00,,,0.00,0,Wunderground v.1.15,2013-01-03 08:47:00,
2013-01-03 03:52:00,35.7,34.9,30.20,NNE,19,1.0,1.0,97,0.00,,,0.00,0,Wunderground v.1.15,2013-01-03 08:52:00,
2013-01-03 03:57:00,35.7,34.9,30.21,NNE,13,0.0,3.0,97,0.00,,,0.00,0,Wunderground v.1.15,2013-01-03 08:57:00,
2013-01-03 04:02:00,35.7,34.9,30.20,NNE,13,0.0,1.0,97,0.00,,,0.00,0,Wunderground v.1.15,2013-01-03 09:02:00,
2013-01-03 04:07:00,35.6,34.8,30.21,NNE,13,0.0,3.0,97,0.00,,,0.00,0,Wunderground v.1.15,2013-01-03 09:07:00,
2013-01-03 04:12:00,35.6,34.8,30.21,NNE,12,2.0,4.0,97,0.00,,,0.00,0,Wunderground v.1.15,2013-01-03 09:12:00,
2013-01-03 04:17:00,35.5,34.7,30.21,NW,319,0.0,4.0,97,0.00,,,0.00,0,Wunderground v.1.15,2013-01-03 09:17:00,
2013-01-03 04:22:00,35.5,34.7,30.21,NW,319,0.0,1.0,97,0.00,,,0.00,0,Wunderground v.1.15,2013-01-03 09:22:00,
2013-01-03 04:27:00,35.5,34.7,30.21,NNW,328,2.0,3.0,97,0.00,,,0.00,0,Wunderground v.1.15,2013-01-03 09:27:00,
2013-01-03 04:32:00,35.4,34.6,30.21,NNW,328,0.0,1.0,97,0.00,,,0.00,0,Wunderground v.1.15,2013-01-03 09:32:00,
2013-01-03 04:37:00,35.3,34.5,30.21,NNW,328,0.0,1.0,97,0.00,,,0.00,0,Wunderground v.1.15,2013-01-03 09:37:00,
2013-01-03 04:42:00,35.3,34.5,30.21,NNW,328,0.0,2.0,97,0.00,,,0.00,0,Wunderground v.1.15,2013-01-03 09:42:00,
2013-01-03 04:47:00,35.2,34.4,30.21,NNW,328,0.0,2.0,97,0.00,,,0.00,0,Wunderground v.1.15,2013-01-03 09:47:00,
2013-01-03 04:52:00,35.2,34.4,30.22,NNW,328,0.0,0.0,97,0.00,,,0.00,0,Wunderground v.1.15,2013-01-03 09:52:00,
2013-01-03 04:57:00,35.2,34.4,30.22,NNW,328,0.0,0.0,97,0.00,,,0.00,0,Wunderground v.1.15,2013-01-03 09:57:00,
2013-01-03 05:02:00,35.2,34.4,30.22,NW,320,0.0,3.0,97,0.00,,,0.00,0,Wunderground v.1.15,2013-01-03 10:02:00,
2013-01-03 05:07:00,35.1,34.3,30.22,NW,320,1.0,3.0,97,0.00,,,0.00,0,Wunderground v.1.15,2013-01-03 10:07:00,
2013-01-03 05:12:00,35.1,34.3,30.22,NW,320,0.0,1.0,97,0.00,,,0.00,0,Wunderground v.1.15,2013-01-03 10:12:00,
2013-01-03 05:18:00,35.1,34.3,30.22,NW,320,0.0,1.0,97,0.00,,,0.00,0,Wunderground v.1.15,2013-01-03 10:18:00,
2013-01-03 05:23:00,35.1,34.3,30.22,NW,320,0.0,2.0,97,0.00,,,0.00,0,Wunderground v.1.15,2013-01-03 10:23:00,
2013-01-03 05:28:00,35.1,34.3,30.23,NW,320,0.0,2.0,97,0.00,,,0.00,0,Wunderground v.1.15,2013-01-03 10:28:00,
2013-01-03 05:33:00,35.1,34.3,30.22,NW,320,0.0,0.0,97,0.00,,,0.00,0,Wunderground v.1.15,2013-01-03 10:33:00,
2013-01-03 05:38:00,35.0,34.2,30.22,NW,320,0.0,2.0,97,0.00,,,0.00,0,Wunderground v.1.15,2013-01-03 10:38:00,
2013-01-03 05:43:00,35.0,34.0,30.22,NW,320,0.0,0.0,96,0.00,,,0.00,0,Wunderground v.1.15,2013-01-03 10:43:00,
2013-01-03 05:48:00,35.0,34.0,30.22,NW,320,0.0,0.0,96,0.00,,,0.00,0,Wunderground v.1.15,2013-01-03 10:48:00,
2013-01-03 05:53:00,35.0,34.0,30.22,NW,320,0.0,0.0,96,0.00,,,0.00,0,Wunderground v.1.15,2013-01-03 10:53:00,
2013-01-03 05:58:00,35.0,34.0,30.22,NW,320,0.0,0.0,96,0.00,,,0.00,0,Wunderground v.1.15,2013-01-03 10:58:00,
2013-01-03 06:03:00,34.9,33.9,30.23,NW,320,0.0,0.0,96,0.00,,,0.00,0,Wunderground v.1.15,2013-01-03 11:03:00,
2013-01-03 06:08:00,34.9,33.9,30.23,NW,320,0.0,0.0,96,0.00,,,0.00,0,Wunderground v.1.15,2013-01-03 11:08:00,
2013-01-03 06:13:00,34.9,33.9,30.23,NW,320,0.0,0.0,96,0.00,,,0.00,0,Wunderground v.1.15,2013-01-03 11:13:00,
2013-01-03 06:18:00,34.9,33.9,30.22,NW,320,0.0,1.0,96,0.00,,,0.00,0,Wunderground v.1.15,2013-01-03 11:18:00,
2013-01-03 06:23:00,34.8,33.8,30.22,NW,320,0.0,1.0,96,0.00,,,0.00,0,Wunderground v.1.15,2013-01-03 11:23:00,
2013-01-03 06:28:00,34.7,33.7,30.22,NNW,327,0.0,3.0,96,0.00,,,0.00,0,Wunderground v.1.15,2013-01-03 11:28:00,
2013-01-03 06:33:00,34.6,33.6,30.22,NNW,327,0.0,1.0,96,0.00,,,0.00,0,Wunderground v.1.15,2013-01-03 11:33:00,
2013-01-03 06:38:00,34.6,33.6,30.22,NNW,327,0.0,1.0,96,0.00,,,0.00,0,Wunderground v.1.15,2013-01-03 11:38:00,
2013-01-03 06:43:00,34.5,33.5,30.22,NNW,327,0.0,1.0,96,0.00,,,0.00,0,Wunderground v.1.15,2013-01-03 11:43:00,
2013-01-03 06:48:00,34.5,33.5,30.22,NNW,327,0.0,1.0,96,0.00,,,0.00,0,Wunderground v.1.15,2013-01-03 11:48:00,
2013-01-03 06:54:00,34.4,33.4,30.23,NNW,327,0.0,0.0,96,0.00,,,0.00,0,Wunderground v.1.15,2013-01-03 11:54:00,
2013-01-03 06:59:00,34.3,33.3,30.24,NNW,327,1.0,2.0,96,0.00,,,0.00,0,Wunderground v.1.15,2013-01-03 11:59:00,
2013-01-03 07:04:00,34.2,33.2,30.24,WNW,300,0.0,3.0,96,0.00,,,0.00,0,Wunderground v.1.15,2013-01-03 12:04:00,
2013-01-03 07:09:00,34.2,33.2,30.23,WNW,302,0.0,3.0,96,0.00,,,0.00,0,Wunderground v.1.15,2013-01-03 12:09:00,
2013-01-03 07:14:00,34.1,33.1,30.24,NW,306,3.0,4.0,96,0.00,,,0.00,0,Wunderground v.1.15,2013-01-03 12:14:00,
2013-01-03 07:19:00,34.0,32.7,30.24,NNW,342,1.0,4.0,95,0.00,,,0.00,0,Wunderground v.1.15,2013-01-03 12:19:00,
2013-01-03 07:24:00,34.0,32.7,30.24,NW,317,1.0,4.0,95,0.00,,,0.00,0,Wunderground v.1.15,2013-01-03 12:24:00,
2013-01-03 07:29:00,33.9,32.6,30.24,NW,316,1.0,4.0,95,0.00,,,0.00,0,Wunderground v.1.15,2013-01-03 12:29:00,
2013-01-03 07:34:00,33.9,32.6,30.25,NW,316,0.0,2.0,95,0.00,,,0.00,0,Wunderground v.1.15,2013-01-03 12:34:00,
2013-01-03 07:39:00,33.9,32.6,30.24,NW,316,1.0,2.0,95,0.00,,,0.00,0,Wunderground v.1.15,2013-01-03 12:39:00,
2013-01-03 07:44:00,33.9,32.9,30.25,NNW,332,0.0,3.0,96,0.00,,,0.00,0,Wunderground v.1.15,2013-01-03 12:44:00,
2013-01-03 07:49:00,33.9,32.9,30.25,NNW,332,0.0,3.0,96,0.00,,,0.00,0,Wunderground v.1.15,2013-01-03 12:49:00,
2013-01-03 07:54:00,33.9,32.9,30.25,WNW,300,0.0,3.0,96,0.00,,,0.00,5,Wunderground v.1.15,2013-01-03 12:54:00,
2013-01-03 08:00:00,33.9,32.9,30.25,WNW,300,2.0,2.0,96,0.00,,,0.00,9,Wunderground v.1.15,2013-01-03 13:00:00,
2013-01-03 08:05:00,33.9,32.6,30.25,NW,304,0.0,3.0,95,0.00,,,0.00,11,Wunderground v.1.15,2013-01-03 13:05:00,
2013-01-03 08:10:00,33.8,32.5,30.25,NW,315,0.0,1.0,95,0.00,,,0.00,18,Wunderground v.1.15,2013-01-03 13:10:00,
2013-01-03 08:15:00,33.8,32.5,30.25,NW,311,3.0,4.0,95,0.00,,,0.00,19,Wunderground v.1.15,2013-01-03 13:15:00,
2013-01-03 08:20:00,33.8,32.5,30.25,NNW,336,3.0,3.0,95,0.00,,,0.00,25,Wunderground v.1.15,2013-01-03 13:20:00,
2013-01-03 08:25:00,33.8,32.5,30.26,NW,323,1.0,4.0,95,0.00,,,0.00,26,Wunderground v.1.15,2013-01-03 13:25:00,
2013-01-03 08:30:00,33.8,32.5,30.26,North,349,1.0,2.0,95,0.00,,,0.00,33,Wunderground v.1.15,2013-01-03 13:30:00,
2013-01-03 08:35:00,33.7,32.4,30.25,NNW,347,0.0,4.0,95,0.00,,,0.00,35,Wunderground v.1.15,2013-01-03 13:35:00,
2013-01-03 08:40:00,33.7,32.4,30.26,NNW,338,2.0,3.0,95,0.00,,,0.00,26,Wunderground v.1.15,2013-01-03 13:40:00,
2013-01-03 08:45:00,33.8,32.5,30.25,NNW,346,3.0,5.0,95,0.00,,,0.00,32,Wunderground v.1.15,2013-01-03 13:45:00,
2013-01-03 08:50:00,33.8,32.5,30.25,NW,325,0.0,3.0,95,0.00,,,0.00,32,Wunderground v.1.15,2013-01-03 13:50:00,
2013-01-03 08:55:00,33.8,32.5,30.26,North,351,2.0,5.0,95,0.00,,,0.00,32,Wunderground v.1.15,2013-01-03 13:55:00,
2013-01-03 09:00:00,33.8,32.5,30.25,NNW,336,1.0,2.0,95,0.00,,,0.00,33,Wunderground v.1.15,2013-01-03 14:00:00,
2013-01-03 09:05:00,33.8,32.5,30.26,NW,320,6.0,6.0,95,0.00,,,0.00,32,Wunderground v.1.15,2013-01-03 14:05:00,
2013-01-03 09:10:00,33.8,32.5,30.26,WNW,302,3.0,4.0,95,0.00,,,0.00,33,Wunderground v.1.15,2013-01-03 14:10:00,
2013-01-03 09:15:00,33.8,32.5,30.26,NW,320,3.0,5.0,95,0.00,,,0.00,42,Wunderground v.1.15,2013-01-03 14:15:00,
2013-01-03 09:20:00,33.9,32.6,30.27,WNW,293,8.0,8.0,95,0.00,,,0.00,62,Wunderground v.1.15,2013-01-03 14:20:00,
2013-01-03 09:25:00,33.9,32.6,30.27,NW,325,3.0,9.0,95,0.00,,,0.00,76,Wunderground v.1.15,2013-01-03 14:25:00,
2013-01-03 09:30:00,34.0,32.7,30.27,NW,313,2.0,5.0,95,0.00,,,0.00,63,Wunderground v.1.15,2013-01-03 14:30:00,
2013-01-03 09:36:00,34.1,32.8,30.27,West,281,4.0,8.0,95,0.00,,,0.00,72,Wunderground v.1.15,2013-01-03 14:36:00,
2013-01-03 09:41:00,34.2,32.9,30.26,WNW,299,6.0,6.0,95,0.00,,,0.00,76,Wunderground v.1.15,2013-01-03 14:41:00,
2013-01-03 09:46:00,34.2,32.7,30.27,WNW,298,4.0,7.0,94,0.00,,,0.00,79,Wunderground v.1.15,2013-01-03 14:46:00,
2013-01-03 09:51:00,34.3,32.8,30.27,WNW,287,3.0,6.0,94,0.00,,,0.00,81,Wunderground v.1.15,2013-01-03 14:51:00,
2013-01-03 09:56:00,34.3,32.8,30.27,WNW,298,3.0,6.0,94,0.00,,,0.00,62,Wunderground v.1.15,2013-01-03 14:56:00,
2013-01-03 10:01:00,34.3,32.8,30.28,NW,307,6.0,6.0,94,0.00,,,0.00,63,Wunderground v.1.15,2013-01-03 15:01:00,
2013-01-03 10:06:00,34.4,32.9,30.28,WNW,298,2.0,7.0,94,0.00,,,0.00,79,Wunderground v.1.15,2013-01-03 15:06:00,
2013-01-03 10:12:00,34.5,32.7,30.28,NW,311,3.0,6.0,93,0.00,,,0.00,84,Wunderground v.1.15,2013-01-03 15:12:00,
2013-01-03 10:17:00,34.5,32.7,30.28,West,279,5.0,9.0,93,0.00,,,0.00,83,Wunderground v.1.15,2013-01-03 15:17:00,
2013-01-03 10:22:00,34.5,32.7,30.28,WSW,238,3.0,5.0,93,0.00,,,0.00,90,Wunderground v.1.15,2013-01-03 15:22:00,
2013-01-03 10:27:00,34.6,32.5,30.29,NW,309,4.0,8.0,92,0.00,,,0.00,114,Wunderground v.1.15,2013-01-03 15:27:00,
2013-01-03 10:32:00,34.7,32.6,30.29,NW,308,2.0,5.0,92,0.00,,,0.00,128,Wunderground v.1.15,2013-01-03 15:32:00,
2013-01-03 10:37:00,34.9,32.8,30.29,West,277,3.0,7.0,92,0.00,,,0.00,146,Wunderground v.1.15,2013-01-03 15:37:00,
2013-01-03 10:42:00,35.0,32.9,30.29,West,279,4.0,5.0,92,0.00,,,0.00,137,Wunderground v.1.15,2013-01-03 15:42:00,
2013-01-03 10:47:00,35.1,33.0,30.29,West,273,2.0,7.0,92,0.00,,,0.00,130,Wunderground v.1.15,2013-01-03 15:47:00,
2013-01-03 10:52:00,35.2,32.8,30.30,WNW,282,4.0,6.0,91,0.00,,,0.00,118,Wunderground v.1.15,2013-01-03 15:52:00,
2013-01-03 10:57:00,35.2,32.8,30.29,NNW,328,0.0,7.0,91,0.00,,,0.00,141,Wunderground v.1.15,2013-01-03 15:57:00,
2013-01-03 11:02:00,35.4,33.0,30.29,WNW,285,4.0,4.0,91,0.00,,,0.00,142,Wunderground v.1.15,2013-01-03 16:02:00,
2013-01-03 11:07:00,35.6,33.2,30.29,NW,304,7.0,7.0,91,0.00,,,0.00,123,Wunderground v.1.15,2013-01-03 16:07:00,
2013-01-03 11:12:00,35.6,33.2,30.29,NNW,336,4.0,6.0,91,0.00,,,0.00,162,Wunderground v.1.15,2013-01-03 16:12:00,
2013-01-03 11:17:00,35.8,33.4,30.29,NW,324,3.0,6.0,91,0.00,,,0.00,178,Wunderground v.1.15,2013-01-03 16:17:00,
2013-01-03 11:22:00,36.0,33.4,30.29,NNW,332,2.0,5.0,90,0.00,,,0.00,202,Wunderground v.1.15,2013-01-03 16:22:00,
2013-01-03 11:27:00,36.1,33.5,30.29,WNW,302,2.0,6.0,90,0.00,,,0.00,185,Wunderground v.1.15,2013-01-03 16:27:00,
2013-01-03 11:32:00,36.2,33.5,30.29,NNW,328,5.0,5.0,90,0.00,,,0.00,213,Wunderground v.1.15,2013-01-03 16:32:00,
2013-01-03 11:37:00,36.4,33.7,30.29,WNW,284,4.0,5.0,90,0.00,,,0.00,260,Wunderground v.1.15,2013-01-03 16:37:00,
2013-01-03 11:42:00,36.7,33.8,30.29,WNW,297,3.0,6.0,89,0.00,,,0.00,232,Wunderground v.1.15,2013-01-03 16:42:00,
2013-01-03 11:47:00,36.8,33.9,30.28,North,350,2.0,6.0,89,0.00,,,0.00,204,Wunderground v.1.15,2013-01-03 16:47:00,
2013-01-03 11:52:00,37.0,33.8,30.29,NW,315,3.0,6.0,88,0.00,,,0.00,248,Wunderground v.1.15,2013-01-03 16:52:00,
2013-01-03 11:57:00,37.0,33.5,30.29,NW,306,2.0,6.0,87,0.00,,,0.00,313,Wunderground v.1.15,2013-01-03 16:57:00,
2013-01-03 12:02:00,37.2,33.7,30.28,NW,323,3.0,6.0,87,0.00,,,0.00,301,Wunderground v.1.15,2013-01-03 17:02:00,
2013-01-03 12:07:00,37.3,33.8,30.28,NNW,340,6.0,6.0,87,0.00,,,0.00,221,Wunderground v.1.15,2013-01-03 17:07:00,
2013-01-03 12:12:00,37.4,33.9,30.28,North,350,4.0,5.0,87,0.00,,,0.00,232,Wunderground v.1.15,2013-01-03 17:12:00,
2013-01-03 12:17:00,37.4,33.9,30.28,NNW,343,2.0,6.0,87,0.00,,,0.00,267,Wunderground v.1.15,2013-01-03 17:17:00,
2013-01-03 12:22:00,37.5,33.7,30.28,WNW,288,3.0,6.0,86,0.00,,,0.00,244,Wunderground v.1.15,2013-01-03 17:22:00,
2013-01-03 12:27:00,37.5,33.7,30.27,NNE,17,2.0,6.0,86,0.00,,,0.00,244,Wunderground v.1.15,2013-01-03 17:27:00,
2013-01-03 12:32:00,37.7,33.9,30.27,NNW,338,3.0,4.0,86,0.00,,,0.00,214,Wunderground v.1.15,2013-01-03 17:32:00,
2013-01-03 12:37:00,37.8,34.0,30.27,NNW,346,3.0,7.0,86,0.00,,,0.00,258,Wunderground v.1.15,2013-01-03 17:37:00,
2013-01-03 12:42:00,37.8,33.7,30.27,NNW,345,3.0,5.0,85,0.00,,,0.00,345,Wunderground v.1.15,2013-01-03 17:42:00,
2013-01-03 12:47:00,38.1,34.3,30.26,North,360,0.0,6.0,86,0.00,,,0.00,353,Wunderground v.1.15,2013-01-03 17:47:00,
2013-01-03 12:52:00,38.4,34.3,30.27,North,355,0.0,7.0,85,0.00,,,0.00,364,Wunderground v.1.15,2013-01-03 17:52:00,
2013-01-03 12:57:00,38.7,34.6,30.27,West,277,2.0,7.0,85,0.00,,,0.00,424,Wunderground v.1.15,2013-01-03 17:57:00,
2013-01-03 13:02:00,38.9,34.5,30.26,NNW,342,2.0,7.0,84,0.00,,,0.00,338,Wunderground v.1.15,2013-01-03 18:02:00,
2013-01-03 13:07:00,38.9,34.2,30.27,ENE,58,3.0,7.0,83,0.00,,,0.00,267,Wunderground v.1.15,2013-01-03 18:07:00,
2013-01-03 13:12:00,39.1,34.4,30.26,NW,323,6.0,8.0,83,0.00,,,0.00,424,Wunderground v.1.15,2013-01-03 18:12:00,
2013-01-03 13:17:00,39.3,34.3,30.27,WNW,287,3.0,8.0,82,0.00,,,0.00,396,Wunderground v.1.15,2013-01-03 18:17:00,
2013-01-03 13:22:00,39.3,34.0,30.27,NW,307,5.0,10.0,81,0.00,,,0.00,436,Wunderground v.1.15,2013-01-03 18:22:00,
2013-01-03 13:27:00,39.3,34.0,30.27,WNW,297,5.0,10.0,81,0.00,,,0.00,383,Wunderground v.1.15,2013-01-03 18:27:00,
2013-01-03 13:32:00,39.2,33.9,30.27,WNW,297,4.0,9.0,81,0.00,,,0.00,439,Wunderground v.1.15,2013-01-03 18:32:00,
2013-01-03 13:37:00,39.4,33.7,30.26,WNW,288,6.0,10.0,80,0.00,,,0.00,376,Wunderground v.1.15,2013-01-03 18:37:00,
2013-01-03 13:42:00,39.3,33.6,30.27,WNW,290,7.0,10.0,80,0.00,,,0.00,285,Wunderground v.1.15,2013-01-03 18:42:00,
2013-01-03 13:47:00,39.1,33.5,30.27,NW,323,12.0,12.0,80,0.00,,,0.00,383,Wunderground v.1.15,2013-01-03 18:47:00,
2013-01-03 13:52:00,38.9,32.9,30.26,WNW,297,3.0,8.0,79,0.00,,,0.00,329,Wunderground v.1.15,2013-01-03 18:52:00,
2013-01-03 13:57:00,39.1,33.5,30.27,NNW,341,6.0,8.0,80,0.00,,,0.00,308,Wunderground v.1.15,2013-01-03 18:57:00,
2013-01-03 14:02:00,39.0,33.0,30.27,West,278,6.0,6.0,79,0.00,,,0.00,274,Wunderground v.1.15,2013-01-03 19:02:00,
2013-01-03 14:07:00,39.0,33.4,30.26,West,266,5.0,10.0,80,0.00,,,0.00,250,Wunderground v.1.15,2013-01-03 19:07:00,
2013-01-03 14:12:00,38.9,33.3,30.27,WNW,291,6.0,9.0,80,0.00,,,0.00,250,Wunderground v.1.15,2013-01-03 19:12:00,
2013-01-03 14:17:00,38.8,32.8,30.26,North,355,7.0,9.0,79,0.00,,,0.00,311,Wunderground v.1.15,2013-01-03 19:17:00,
2013-01-03 14:56:00,38.2,31.6,30.28,NNW,344,4.0,8.0,77,0.00,,,0.00,267,Wunderground v.1.15,2013-01-03 19:56:00,
2013-01-03 15:01:00,38.1,31.8,30.28,WNW,292,5.0,7.0,78,0.00,,,0.00,223,Wunderground v.1.15,2013-01-03 20:01:00,
2013-01-03 15:06:00,38.1,31.8,30.28,NNW,341,3.0,9.0,78,0.00,,,0.00,199,Wunderground v.1.15,2013-01-03 20:06:00,
2013-01-03 15:11:00,38.0,31.7,30.28,NNW,331,5.0,7.0,78,0.00,,,0.00,167,Wunderground v.1.15,2013-01-03 20:11:00,
2013-01-03 15:16:00,37.9,31.7,30.29,NW,317,3.0,7.0,78,0.00,,,0.00,155,Wunderground v.1.15,2013-01-03 20:16:00,
2013-01-03 15:21:00,37.8,31.6,30.28,NNW,341,8.0,10.0,78,0.00,,,0.00,123,Wunderground v.1.15,2013-01-03 20:21:00,
2013-01-03 15:26:00,37.8,31.9,30.28,NNW,340,4.0,10.0,79,0.00,,,0.00,257,Wunderground v.1.15,2013-01-03 20:26:00,
2013-01-03 15:31:00,38.1,32.2,30.29,WNW,301,6.0,6.0,79,0.00,,,0.00,267,Wunderground v.1.15,2013-01-03 20:31:00,
2013-01-03 15:36:00,38.2,31.6,30.29,SSW,213,1.0,8.0,77,0.00,,,0.00,204,Wunderground v.1.15,2013-01-03 20:36:00,
2013-01-03 15:41:00,38.4,31.8,30.29,NW,315,3.0,6.0,77,0.00,,,0.00,271,Wunderground v.1.15,2013-01-03 20:41:00,
2013-01-03 15:46:00,38.6,32.0,30.29,NNW,337,2.0,9.0,77,0.00,,,0.00,278,Wunderground v.1.15,2013-01-03 20:46:00,
2013-01-03 15:51:00,38.8,31.9,30.30,NNW,342,7.0,7.0,76,0.00,,,0.00,257,Wunderground v.1.15,2013-01-03 20:51:00,
2013-01-03 15:56:00,38.9,31.6,30.30,WNW,284,5.0,9.0,75,0.00,,,0.00,239,Wunderground v.1.15,2013-01-03 20:56:00,
2013-01-03 16:01:00,39.0,31.7,30.30,NNW,331,3.0,7.0,75,0.00,,,0.00,218,Wunderground v.1.15,2013-01-03 21:01:00,
2013-01-03 16:06:00,39.2,31.9,30.30,NW,323,4.0,8.0,75,0.00,,,0.00,202,Wunderground v.1.15,2013-01-03 21:06:00,
2013-01-03 16:11:00,39.3,31.7,30.30,WNW,286,4.0,6.0,74,0.00,,,0.00,181,Wunderground v.1.15,2013-01-03 21:11:00,
2013-01-03 16:16:00,39.3,31.7,30.30,West,279,5.0,8.0,74,0.00,,,0.00,163,Wunderground v.1.15,2013-01-03 21:16:00,
2013-01-03 16:21:00,39.2,31.3,30.30,West,278,3.0,5.0,73,0.00,,,0.00,146,Wunderground v.1.15,2013-01-03 21:21:00,
2013-01-03 16:27:00,39.2,31.3,30.30,WNW,303,2.0,8.0,73,0.00,,,0.00,118,Wunderground v.1.15,2013-01-03 21:27:00,
2013-01-03 16:32:00,39.1,31.5,30.30,WNW,301,3.0,6.0,74,0.00,,,0.00,56,Wunderground v.1.15,2013-01-03 21:32:00,
2013-01-03 16:37:00,39.0,31.1,30.31,West,276,3.0,6.0,73,0.00,,,0.00,51,Wunderground v.1.15,2013-01-03 21:37:00,
2013-01-03 16:42:00,39.0,31.1,30.31,WNW,288,3.0,3.0,73,0.00,,,0.00,51,Wunderground v.1.15,2013-01-03 21:42:00,
2013-01-03 16:47:00,38.9,31.3,30.31,West,270,2.0,5.0,74,0.00,,,0.00,49,Wunderground v.1.15,2013-01-03 21:47:00,
2013-01-03 16:52:00,38.8,31.2,30.32,West,275,2.0,5.0,74,0.00,,,0.00,35,Wunderground v.1.15,2013-01-03 21:52:00,
2013-01-03 16:57:00,38.7,31.1,30.32,NW,318,2.0,7.0,74,0.00,,,0.00,26,Wunderground v.1.15,2013-01-03 21:57:00,
2013-01-03 17:03:00,38.6,31.0,30.32,NW,310,2.0,3.0,74,0.00,,,0.00,23,Wunderground v.1.15,2013-01-03 22:03:00,
2013-01-03 17:08:00,38.3,30.7,30.32,NW,319,3.0,5.0,74,0.00,,,0.00,19,Wunderground v.1.15,2013-01-03 22:08:00,
2013-01-03 17:13:00,38.0,30.8,30.32,WNW,290,1.0,4.0,75,0.00,,,0.00,18,Wunderground v.1.15,2013-01-03 22:13:00,
2013-01-03 17:18:00,37.8,30.6,30.32,WNW,286,3.0,6.0,75,0.00,,,0.00,16,Wunderground v.1.15,2013-01-03 22:18:00,
2013-01-03 17:23:00,37.5,30.3,30.33,WSW,246,4.0,8.0,75,0.00,,,0.00,12,Wunderground v.1.15,2013-01-03 22:23:00,
2013-01-03 17:28:00,37.3,30.4,30.33,West,273,2.0,8.0,76,0.00,,,0.00,11,Wunderground v.1.15,2013-01-03 22:28:00,
2013-01-03 17:33:00,37.0,30.1,30.33,West,281,0.0,3.0,76,0.00,,,0.00,7,Wunderground v.1.15,2013-01-03 22:33:00,
2013-01-03 17:38:00,36.7,30.2,30.33,NW,315,0.0,7.0,77,0.00,,,0.00,5,Wunderground v.1.15,2013-01-03 22:38:00,
2013-01-03 17:43:00,36.5,30.0,30.33,WNW,297,2.0,5.0,77,0.00,,,0.00,0,Wunderground v.1.15,2013-01-03 22:43:00,
2013-01-03 17:48:00,36.2,30.0,30.33,WNW,290,3.0,8.0,78,0.00,,,0.00,0,Wunderground v.1.15,2013-01-03 22:48:00,
2013-01-03 17:53:00,36.0,30.1,30.33,WNW,297,5.0,8.0,79,0.00,,,0.00,0,Wunderground v.1.15,2013-01-03 22:53:00,
2013-01-03 17:58:00,35.8,29.9,30.33,NW,309,5.0,8.0,79,0.00,,,0.00,0,Wunderground v.1.15,2013-01-03 22:58:00,
2013-01-03 18:03:00,35.7,30.1,30.34,NW,311,8.0,11.0,80,0.00,,,0.00,0,Wunderground v.1.15,2013-01-03 23:03:00,
2013-01-03 18:08:00,35.7,30.1,30.34,WSW,246,3.0,11.0,80,0.00,,,0.00,0,Wunderground v.1.15,2013-01-03 23:08:00,
2013-01-03 18:13:00,35.6,30.0,30.34,West,264,8.0,10.0,80,0.00,,,0.00,0,Wunderground v.1.15,2013-01-03 23:13:00,
2013-01-03 18:18:00,35.6,30.0,30.34,NW,308,7.0,11.0,80,0.00,,,0.00,0,Wunderground v.1.15,2013-01-03 23:18:00,
2013-01-03 18:23:00,35.5,29.9,30.35,WNW,282,6.0,7.0,80,0.00,,,0.00,0,Wunderground v.1.15,2013-01-03 23:23:00,
2013-01-03 18:29:00,35.3,30.1,30.35,West,275,5.0,9.0,81,0.00,,,0.00,0,Wunderground v.1.15,2013-01-03 23:29:00,
2013-01-03 18:34:00,35.3,30.1,30.35,West,275,10.0,10.0,81,0.00,,,0.00,0,Wunderground v.1.15,2013-01-03 23:34:00,
2013-01-03 18:39:00,35.3,29.7,30.35,WNW,303,7.0,10.0,80,0.00,,,0.00,0,Wunderground v.1.15,2013-01-03 23:39:00,
2013-01-03 18:44:00,35.2,29.6,30.35,NW,313,6.0,10.0,80,0.00,,,0.00,0,Wunderground v.1.15,2013-01-03 23:44:00,
2013-01-03 18:49:00,35.3,29.7,30.35,WSW,241,6.0,10.0,80,0.00,,,0.00,0,Wunderground v.1.15,2013-01-03 23:49:00,
2013-01-03 18:54:00,35.2,29.6,30.36,West,271,4.0,6.0,80,0.00,,,0.00,0,Wunderground v.1.15,2013-01-03 23:54:00,
2013-01-03 18:59:00,35.2,29.6,30.36,WNW,290,2.0,7.0,80,0.00,,,0.00,0,Wunderground v.1.15,2013-01-03 23:59:00,
2013-01-03 19:04:00,35.1,29.6,30.36,WNW,300,2.0,6.0,80,0.00,,,0.00,0,Wunderground v.1.15,2013-01-04 00:04:00,
2013-01-03 19:09:00,35.0,29.8,30.36,WSW,258,3.0,6.0,81,0.00,,,0.00,0,Wunderground v.1.15,2013-01-04 00:09:00,
2013-01-03 19:14:00,34.9,29.7,30.35,West,269,1.0,5.0,81,0.00,,,0.00,0,Wunderground v.1.15,2013-01-04 00:14:00,
2013-01-03 19:19:00,34.7,29.5,30.36,WNW,292,3.0,5.0,81,0.00,,,0.00,0,Wunderground v.1.15,2013-01-04 00:19:00,
2013-01-03 19:24:00,34.6,29.4,30.35,West,263,1.0,6.0,81,0.00,,,0.00,0,Wunderground v.1.15,2013-01-04 00:24:00,
2013-01-03 19:29:00,34.5,29.6,30.36,WNW,286,1.0,6.0,82,0.00,,,0.00,0,Wunderground v.1.15,2013-01-04 00:29:00,
2013-01-03 19:34:00,34.4,29.5,30.36,West,277,2.0,6.0,82,0.00,,,0.00,0,Wunderground v.1.15,2013-01-04 00:34:00,
2013-01-03 19:39:00,34.3,29.4,30.36,WNW,288,4.0,7.0,82,0.00,,,0.00,0,Wunderground v.1.15,2013-01-04 00:39:00,
2013-01-03 19:44:00,34.1,29.2,30.36,West,272,1.0,7.0,82,0.00,,,0.00,0,Wunderground v.1.15,2013-01-04 00:44:00,
2013-01-03 19:49:00,34.0,29.4,30.36,WNW,303,3.0,7.0,83,0.00,,,0.00,0,Wunderground v.1.15,2013-01-04 00:49:00,
2013-01-03 19:54:00,33.8,29.2,30.36,WNW,301,1.0,5.0,83,0.00,,,0.00,0,Wunderground v.1.15,2013-01-04 00:54:00,
2013-01-03 19:59:00,33.7,29.1,30.36,WNW,296,1.0,5.0,83,0.00,,,0.00,0,Wunderground v.1.15,2013-01-04 00:59:00,
2013-01-03 20:04:00,33.6,29.0,30.36,WNW,294,0.0,2.0,83,0.00,,,0.00,0,Wunderground v.1.15,2013-01-04 01:04:00,
2013-01-03 20:09:00,33.4,28.8,30.36,West,265,0.0,3.0,83,0.00,,,0.00,0,Wunderground v.1.15,2013-01-04 01:09:00,
2013-01-03 20:14:00,33.2,28.6,30.36,West,265,0.0,1.0,83,0.00,,,0.00,0,Wunderground v.1.15,2013-01-04 01:14:00,
2013-01-03 20:19:00,32.8,28.5,30.36,WSW,245,0.0,1.0,84,0.00,,,0.00,0,Wunderground v.1.15,2013-01-04 01:19:00,
2013-01-03 20:24:00,32.3,28.3,30.36,WSW,245,0.0,0.0,85,0.00,,,0.00,0,Wunderground v.1.15,2013-01-04 01:24:00,
2013-01-03 20:29:00,31.9,27.9,30.37,WSW,245,0.0,0.0,85,0.00,,,0.00,0,Wunderground v.1.15,2013-01-04 01:29:00,
2013-01-03 20:34:00,31.5,27.8,30.36,WSW,245,0.0,0.0,86,0.00,,,0.00,0,Wunderground v.1.15,2013-01-04 01:34:00,
2013-01-03 20:40:00,31.3,27.6,30.36,WSW,245,0.0,0.0,86,0.00,,,0.00,0,Wunderground v.1.15,2013-01-04 01:40:00,
2013-01-03 20:45:00,31.0,27.6,30.36,SW,233,0.0,0.0,87,0.00,,,0.00,0,Wunderground v.1.15,2013-01-04 01:45:00,
2013-01-03 20:50:00,30.8,27.4,30.37,SSW,194,0.0,0.0,87,0.00,,,0.00,0,Wunderground v.1.15,2013-01-04 01:50:00,
2013-01-03 20:55:00,30.6,27.5,30.37,ENE,71,0.0,2.0,88,0.00,,,0.00,0,Wunderground v.1.15,2013-01-04 01:55:00,
2013-01-03 21:00:00,30.3,27.2,30.37,ENE,71,0.0,0.0,88,0.00,,,0.00,0,Wunderground v.1.15,2013-01-04 02:00:00,
2013-01-03 21:05:00,30.1,27.3,30.37,ENE,72,0.0,1.0,89,0.00,,,0.00,0,Wunderground v.1.15,2013-01-04 02:05:00,
2013-01-03 21:10:00,29.8,27.0,30.37,ENE,71,0.0,0.0,89,0.00,,,0.00,0,Wunderground v.1.15,2013-01-04 02:10:00,
2013-01-03 21:15:00,29.6,27.0,30.37,ENE,71,0.0,0.0,90,0.00,,,0.00,0,Wunderground v.1.15,2013-01-04 02:15:00,
2013-01-03 21:20:00,29.4,26.8,30.37,ENE,72,0.0,0.0,90,0.00,,,0.00,0,Wunderground v.1.15,2013-01-04 02:20:00,
2013-01-03 21:25:00,29.3,26.7,30.37,ENE,72,0.0,1.0,90,0.00,,,0.00,0,Wunderground v.1.15,2013-01-04 02:25:00,
2013-01-03 21:30:00,29.2,26.9,30.37,ENE,72,0.0,0.0,91,0.00,,,0.00,0,Wunderground v.1.15,2013-01-04 02:30:00,
2013-01-03 21:35:00,29.0,26.7,30.37,ENE,71,0.0,0.0,91,0.00,,,0.00,0,Wunderground v.1.15,2013-01-04 02:35:00,
2013-01-03 21:40:00,28.9,26.6,30.37,ENE,71,0.0,0.0,91,0.00,,,0.00,0,Wunderground v.1.15,2013-01-04 02:40:00,
2013-01-03 21:45:00,28.7,26.4,30.37,ENE,72,0.0,0.0,91,0.00,,,0.00,0,Wunderground v.1.15,2013-01-04 02:45:00,
2013-01-03 21:50:00,28.6,26.3,30.37,ENE,71,0.0,0.0,91,0.00,,,0.00,0,Wunderground v.1.15,2013-01-04 02:50:00,
2013-01-03 21:55:00,28.5,26.5,30.37,ENE,72,0.0,0.0,92,0.00,,,0.00,0,Wunderground v.1.15,2013-01-04 02:55:00,
2013-01-03 22:00:00,28.4,26.4,30.38,ENE,71,0.0,0.0,92,0.00,,,0.00,0,Wunderground v.1.15,2013-01-04 03:00:00,
2013-01-03 22:05:00,28.2,26.2,30.38,ENE,72,0.0,0.0,92,0.00,,,0.00,0,Wunderground v.1.15,2013-01-04 03:05:00,
2013-01-03 22:10:00,28.1,26.1,30.38,ENE,71,0.0,0.0,92,0.00,,,0.00,0,Wunderground v.1.15,2013-01-04 03:10:00,
2013-01-03 22:15:00,27.9,25.9,30.38,ENE,71,1.0,2.0,92,0.00,,,0.00,0,Wunderground v.1.15,2013-01-04 03:15:00,
2013-01-03 22:20:00,27.8,25.8,30.38,ENE,71,0.0,0.0,92,0.00,,,0.00,0,Wunderground v.1.15,2013-01-04 03:20:00,
2013-01-03 22:25:00,27.6,25.6,30.38,ENE,71,0.0,0.0,92,0.00,,,0.00,0,Wunderground v.1.15,2013-01-04 03:25:00,
2013-01-03 22:30:00,27.5,25.5,30.38,ENE,71,0.0,0.0,92,0.00,,,0.00,0,Wunderground v.1.15,2013-01-04 03:30:00,
2013-01-03 22:35:00,27.4,25.4,30.39,ENE,71,0.0,0.0,92,0.00,,,0.00,0,Wunderground v.1.15,2013-01-04 03:35:00,
2013-01-03 22:40:00,27.4,25.6,30.39,WNW,302,2.0,2.0,93,0.00,,,0.00,0,Wunderground v.1.15,2013-01-04 03:40:00,
2013-01-03 22:46:00,27.4,25.6,30.40,WNW,302,0.0,2.0,93,0.00,,,0.00,0,Wunderground v.1.15,2013-01-04 03:46:00,
2013-01-03 22:51:00,27.4,25.6,30.41,WNW,302,2.0,2.0,93,0.00,,,0.00,0,Wunderground v.1.15,2013-01-04 03:51:00,
2013-01-03 22:56:00,27.4,25.9,30.41,WNW,302,0.0,2.0,94,0.00,,,0.00,0,Wunderground v.1.15,2013-01-04 03:56:00,
2013-01-03 23:01:00,27.3,25.8,30.42,WNW,302,0.0,1.0,94,0.00,,,0.00,0,Wunderground v.1.15,2013-01-04 04:01:00,
2013-01-03 23:06:00,27.2,25.7,30.41,WNW,302,0.0,2.0,94,0.00,,,0.00,0,Wunderground v.1.15,2013-01-04 04:06:00,
2013-01-03 23:11:00,27.2,25.7,30.42,WNW,302,0.0,0.0,94,0.00,,,0.00,0,Wunderground v.1.15,2013-01-04 04:11:00,
2013-01-03 23:16:00,27.1,25.6,30.41,WNW,302,0.0,0.0,94,0.00,,,0.00,0,Wunderground v.1.15,2013-01-04 04:16:00,
2013-01-03 23:21:00,27.0,25.5,30.41,WNW,302,0.0,0.0,94,0.00,,,0.00,0,Wunderground v.1.15,2013-01-04 04:21:00,
2013-01-03 23:26:00,27.0,25.5,30.42,WNW,302,0.0,0.0,94,0.00,,,0.00,0,Wunderground v.1.15,2013-01-04 04:26:00,
2013-01-03 23:31:00,26.9,25.4,30.42,WNW,302,0.0,2.0,94,0.00,,,0.00,0,Wunderground v.1.15,2013-01-04 04:31:00,
2013-01-03 23:36:00,27.0,25.5,30.42,WNW,302,0.0,2.0,94,0.00,,,0.00,0,Wunderground v.1.15,2013-01-04 04:36:00,
2013-01-03 23:41:00,27.0,25.5,30.42,WNW,303,2.0,3.0,94,0.00,,,0.00,0,Wunderground v.1.15,2013-01-04 04:41:00,
2013-01-03 23:46:00,27.1,25.6,30.43,WNW,303,0.0,3.0,94,0.00,,,0.00,0,Wunderground v.1.15,2013-01-04 04:46:00,
2013-01-03 23:51:00,26.9,25.4,30.43,WSW,244,0.0,1.0,94,0.00,,,0.00,0,Wunderground v.1.15,2013-01-04 04:51:00,
2013-01-03 23:56:00,26.6,25.1,30.43,WSW,244,0.0,1.0,94,0.00,,,0.00,0,Wunderground v.1.15,2013-01-04 04:56:00,